<?xml version='1.0' encoding='UTF-8'?>
<gpx xmlns="http://www.topografix.com/GPX/1/1" creator="www.balnam.be" version="1.1" xmlns:xsi="http://www.w3.org/2001/XMLSchema-instance" xsi:schemaLocation="http://www.topografix.com/GPX/1/1 http://www.topografix.com/GPX/1/1/gpx.xsd">
<trk>
<name>hbtrg1</name>
<cmt>r</cmt>
<desc>Rongy Chemin n°1 </desc>
<link href="https://chemins.be/rongy/chemin/1"/><trkseg>
<trkpt lat="50.507182" lon="3.385759"><time>2026-05-02T18:12:23Z</time></trkpt>
<trkpt lat="50.500656" lon="3.381712"><time>2026-05-02T18:22:23Z</time></trkpt>
<trkpt lat="50.499127" lon="3.380424"><time>2026-05-02T18:32:23Z</time></trkpt>
<trkpt lat="50.498076" lon="3.378274"><time>2026-05-02T18:42:23Z</time></trkpt>
<trkpt lat="50.497188" lon="3.377667"><time>2026-05-02T18:52:23Z</time></trkpt>
<trkpt lat="50.494874" lon="3.376087"><time>2026-05-02T19:02:23Z</time></trkpt>
</trkseg></trk>
<trk>
<name>hbtrg1</name>
<cmt>v</cmt>
<desc>Rongy Chemin n°1 </desc>
<link href="https://chemins.be/rongy/chemin/1"/><trkseg>
<trkpt lat="50.494874" lon="3.376087"><time>2026-05-02T19:02:23Z</time></trkpt>
<trkpt lat="50.492572" lon="3.377107"><time>2026-05-02T19:12:23Z</time></trkpt>
<trkpt lat="50.492203" lon="3.377045"><time>2026-05-02T19:22:23Z</time></trkpt>
<trkpt lat="50.491043" lon="3.376970"><time>2026-05-02T19:32:23Z</time></trkpt>
</trkseg>
</trk>
<trk>
<name>hbtrg11</name>
<cmt>v</cmt>
<desc>Rongy Chemin n°11 </desc>
<link href="https://chemins.be/rongy/chemin/11"/><trkseg>
<trkpt lat="50.504161" lon="3.395247"><time>2026-05-02T18:12:23Z</time></trkpt>
<trkpt lat="50.503156" lon="3.395968"><time>2026-05-02T18:22:23Z</time></trkpt>
<trkpt lat="50.502261" lon="3.396174"><time>2026-05-02T18:32:23Z</time></trkpt>
<trkpt lat="50.501115" lon="3.395992"><time>2026-05-02T18:42:23Z</time></trkpt>
<trkpt lat="50.500542" lon="3.395559"><time>2026-05-02T18:52:23Z</time></trkpt>
<trkpt lat="50.499712" lon="3.395541"><time>2026-05-02T19:02:23Z</time></trkpt>
</trkseg>
</trk>
<trk>
<name>hbtrg12</name>
<cmt>v</cmt>
<desc>Rongy Chemin n°12 </desc>
<link href="https://chemins.be/rongy/chemin/12"/><trkseg>
<trkpt lat="50.499316" lon="3.392055"><time>2026-05-02T18:12:23Z</time></trkpt>
<trkpt lat="50.499747" lon="3.394981"><time>2026-05-02T18:22:23Z</time></trkpt>
<trkpt lat="50.499709" lon="3.395551"><time>2026-05-02T18:32:23Z</time></trkpt>
<trkpt lat="50.499202" lon="3.398161"><time>2026-05-02T18:42:23Z</time></trkpt>
<trkpt lat="50.499086" lon="3.401041"><time>2026-05-02T18:52:23Z</time></trkpt>
<trkpt lat="50.499217" lon="3.403114"><time>2026-05-02T19:02:23Z</time></trkpt>
<trkpt lat="50.499638" lon="3.404182"><time>2026-05-02T19:12:23Z</time></trkpt>
</trkseg>
</trk>
<trk>
<name>hbtrg14</name>
<cmt>v</cmt>
<desc>Rongy Chemin n°14 </desc>
<link href="https://chemins.be/rongy/chemin/14"/><trkseg>
<trkpt lat="50.508981" lon="3.402464"><time>2026-05-02T18:12:23Z</time></trkpt>
<trkpt lat="50.510319" lon="3.401193"><time>2026-05-02T18:22:23Z</time></trkpt>
<trkpt lat="50.512578" lon="3.402120"><time>2026-05-02T18:32:23Z</time></trkpt>
<trkpt lat="50.514082" lon="3.403009"><time>2026-05-02T18:42:23Z</time></trkpt>
</trkseg>
</trk>
<trk>
<name>hbtrg15</name>
<cmt>v</cmt>
<desc>Rongy Chemin n°15 </desc>
<link href="https://chemins.be/rongy/chemin/15"/><trkseg>
<trkpt lat="50.519297" lon="3.396636"><time>2026-05-02T18:12:23Z</time></trkpt>
<trkpt lat="50.519212" lon="3.396773"><time>2026-05-02T18:22:23Z</time></trkpt>
<trkpt lat="50.517326" lon="3.396346"><time>2026-05-02T18:32:23Z</time></trkpt>
<trkpt lat="50.515525" lon="3.403007"><time>2026-05-02T18:42:23Z</time></trkpt>
<trkpt lat="50.515230" lon="3.403762"><time>2026-05-02T18:52:23Z</time></trkpt>
</trkseg>
</trk>
<trk>
<name>hbtrg16</name>
<cmt>q</cmt>
<desc>Rongy Chemin n°16 </desc>
<link href="https://chemins.be/rongy/chemin/16"/><trkseg>
<trkpt lat="50.493712" lon="3.370991"><time>2026-05-02T18:12:23Z</time></trkpt>
<trkpt lat="50.494991" lon="3.371571"><time>2026-05-02T18:22:23Z</time></trkpt>
<trkpt lat="50.496861" lon="3.371163"><time>2026-05-02T18:32:23Z</time></trkpt>
<trkpt lat="50.497439" lon="3.370648"><time>2026-05-02T18:42:23Z</time></trkpt>
<trkpt lat="50.497644" lon="3.370684"><time>2026-05-02T18:52:23Z</time></trkpt>
</trkseg>
</trk>
<trk>
<name>hbtrg17</name>
<cmt>r</cmt>
<desc>Rongy Chemin n°17 </desc>
<link href="https://chemins.be/rongy/chemin/17"/><trkseg>
<trkpt lat="50.506424" lon="3.390205"><time>2026-05-02T18:12:23Z</time></trkpt>
<trkpt lat="50.505426" lon="3.390000"><time>2026-05-02T18:22:23Z</time></trkpt>
</trkseg></trk>
<trk>
<name>hbtrg17</name>
<cmt>v</cmt>
<desc>Rongy Chemin n°17 </desc>
<link href="https://chemins.be/rongy/chemin/17"/><trkseg>
<trkpt lat="50.505426" lon="3.390000"><time>2026-05-02T18:22:23Z</time></trkpt>
<trkpt lat="50.504938" lon="3.389872"><time>2026-05-02T18:32:23Z</time></trkpt>
</trkseg>
</trk>
<trk>
<name>hbtrg20</name>
<cmt>v</cmt>
<desc>Rongy Chemin n°20 </desc>
<link href="https://chemins.be/rongy/chemin/20"/><trkseg>
<trkpt lat="50.500137" lon="3.391679"><time>2026-05-02T18:12:23Z</time></trkpt>
<trkpt lat="50.499881" lon="3.390857"><time>2026-05-02T18:22:23Z</time></trkpt>
<trkpt lat="50.499074" lon="3.389145"><time>2026-05-02T18:32:23Z</time></trkpt>
<trkpt lat="50.497993" lon="3.387646"><time>2026-05-02T18:42:23Z</time></trkpt>
<trkpt lat="50.496618" lon="3.385121"><time>2026-05-02T18:52:23Z</time></trkpt>
<trkpt lat="50.495611" lon="3.384567"><time>2026-05-02T19:02:23Z</time></trkpt>
</trkseg>
</trk>
<trk>
<name>hbtrg21</name>
<cmt>q</cmt>
<desc>Rongy Sentier n°21 </desc>
<link href="https://chemins.be/rongy/sentier/21"/><trkseg>
<trkpt lat="50.499797" lon="3.390720"><time>2026-05-02T18:12:23Z</time></trkpt>
<trkpt lat="50.500137" lon="3.389395"><time>2026-05-02T18:22:23Z</time></trkpt>
<trkpt lat="50.500489" lon="3.388112"><time>2026-05-02T18:32:23Z</time></trkpt>
<trkpt lat="50.500628" lon="3.387912"><time>2026-05-02T18:42:23Z</time></trkpt>
</trkseg>
</trk>
<trk>
<name>hbtrg22</name>
<cmt>v</cmt>
<desc>Rongy Sentier n°22 </desc>
<link href="https://chemins.be/rongy/sentier/22"/><trkseg>
<trkpt lat="50.507581" lon="3.398947"><time>2026-05-02T18:12:23Z</time></trkpt>
<trkpt lat="50.507313" lon="3.399239"><time>2026-05-02T18:22:23Z</time></trkpt>
<trkpt lat="50.506912" lon="3.399269"><time>2026-05-02T18:32:23Z</time></trkpt>
<trkpt lat="50.506516" lon="3.399024"><time>2026-05-02T18:42:23Z</time></trkpt>
</trkseg></trk>
<trk>
<name>hbtrg22</name>
<cmt>q</cmt>
<desc>Rongy Sentier n°22 </desc>
<link href="https://chemins.be/rongy/sentier/22"/><trkseg>
<trkpt lat="50.506516" lon="3.399024"><time>2026-05-02T18:42:23Z</time></trkpt>
<trkpt lat="50.506055" lon="3.398402"><time>2026-05-02T18:52:23Z</time></trkpt>
<trkpt lat="50.505957" lon="3.397930"><time>2026-05-02T19:02:23Z</time></trkpt>
<trkpt lat="50.505108" lon="3.398046"><time>2026-05-02T19:12:23Z</time></trkpt>
<trkpt lat="50.504412" lon="3.398277"><time>2026-05-02T19:22:23Z</time></trkpt>
<trkpt lat="50.502976" lon="3.397870"><time>2026-05-02T19:32:23Z</time></trkpt>
<trkpt lat="50.502275" lon="3.397183"><time>2026-05-02T19:42:23Z</time></trkpt>
<trkpt lat="50.501382" lon="3.397346"><time>2026-05-02T19:52:23Z</time></trkpt>
<trkpt lat="50.500738" lon="3.397827"><time>2026-05-02T20:02:23Z</time></trkpt>
<trkpt lat="50.499231" lon="3.398161"><time>2026-05-02T20:12:23Z</time></trkpt>
<trkpt lat="50.498398" lon="3.397402"><time>2026-05-02T20:22:23Z</time></trkpt>
</trkseg>
</trk>
<trk>
<name>hbtrg23</name>
<cmt>d</cmt>
<desc>Rongy Sentier n°23 </desc>
<link href="https://chemins.be/rongy/sentier/23"/><trkseg>
<trkpt lat="50.506497" lon="3.393671"><time>2026-05-02T18:12:23Z</time></trkpt>
<trkpt lat="50.506598" lon="3.394242"><time>2026-05-02T18:22:23Z</time></trkpt>
<trkpt lat="50.506790" lon="3.394611"><time>2026-05-02T18:32:23Z</time></trkpt>
</trkseg></trk>
<trk>
<name>hbtrg23</name>
<cmt>q</cmt>
<desc>Rongy Sentier n°23 </desc>
<link href="https://chemins.be/rongy/sentier/23"/><trkseg>
<trkpt lat="50.506790" lon="3.394611"><time>2026-05-02T18:32:23Z</time></trkpt>
<trkpt lat="50.507199" lon="3.396895"><time>2026-05-02T18:42:23Z</time></trkpt>
<trkpt lat="50.506988" lon="3.397256"><time>2026-05-02T18:52:23Z</time></trkpt>
<trkpt lat="50.507054" lon="3.397535"><time>2026-05-02T19:02:23Z</time></trkpt>
<trkpt lat="50.506978" lon="3.397732"><time>2026-05-02T19:12:23Z</time></trkpt>
<trkpt lat="50.507324" lon="3.399251"><time>2026-05-02T19:22:23Z</time></trkpt>
</trkseg>
</trk>
<trk>
<name>hbtrg24</name>
<cmt>q</cmt>
<desc>Rongy Sentier n°24 </desc>
<link href="https://chemins.be/rongy/sentier/24"/><trkseg>
<trkpt lat="50.507922" lon="3.393524"><time>2026-05-02T18:12:23Z</time></trkpt>
<trkpt lat="50.506976" lon="3.395541"><time>2026-05-02T18:22:23Z</time></trkpt>
<trkpt lat="50.506539" lon="3.396247"><time>2026-05-02T18:32:23Z</time></trkpt>
<trkpt lat="50.506281" lon="3.396957"><time>2026-05-02T18:42:23Z</time></trkpt>
<trkpt lat="50.505936" lon="3.397906"><time>2026-05-02T18:52:23Z</time></trkpt>
</trkseg>
</trk>
<trk>
<name>hbtrg25</name>
<cmt>q</cmt>
<desc>Rongy Sentier n°25 </desc>
<link href="https://chemins.be/rongy/sentier/25"/><trkseg>
<trkpt lat="50.505860" lon="3.396876"><time>2026-05-02T18:12:23Z</time></trkpt>
<trkpt lat="50.505933" lon="3.397930"><time>2026-05-02T18:22:23Z</time></trkpt>
</trkseg>
</trk>
<trk>
<name>hbtrg26</name>
<cmt>v</cmt>
<desc>Rongy Sentier n°26 </desc>
<link href="https://chemins.be/rongy/sentier/26"/><trkseg>
<trkpt lat="50.517360" lon="3.396288"><time>2026-05-02T18:12:23Z</time></trkpt>
<trkpt lat="50.516702" lon="3.395996"><time>2026-05-02T18:22:23Z</time></trkpt>
<trkpt lat="50.516039" lon="3.395928"><time>2026-05-02T18:32:23Z</time></trkpt>
<trkpt lat="50.514270" lon="3.395606"><time>2026-05-02T18:42:23Z</time></trkpt>
<trkpt lat="50.514300" lon="3.395301"><time>2026-05-02T18:52:23Z</time></trkpt>
<trkpt lat="50.513023" lon="3.395426"><time>2026-05-02T19:02:23Z</time></trkpt>
<trkpt lat="50.512243" lon="3.395335"><time>2026-05-02T19:12:23Z</time></trkpt>
<trkpt lat="50.511249" lon="3.395777"><time>2026-05-02T19:22:23Z</time></trkpt>
<trkpt lat="50.508479" lon="3.398065"><time>2026-05-02T19:32:23Z</time></trkpt>
</trkseg>
</trk>
<trk>
<name>hbtrg27</name>
<cmt>d</cmt>
<desc>Rongy Sentier n°27 Sentier Longue Borne / Chemin d'Hollain</desc>
<link href="https://chemins.be/rongy/sentier/27"/><trkseg>
<trkpt lat="50.517046" lon="3.401555"><time>2026-05-02T18:12:23Z</time></trkpt>
<trkpt lat="50.518138" lon="3.399040"><time>2026-05-02T18:22:23Z</time></trkpt>
<trkpt lat="50.518438" lon="3.398654"><time>2026-05-02T18:32:23Z</time></trkpt>
</trkseg></trk>
<trk>
<name>hbtrg27</name>
<cmt>r</cmt>
<desc>Rongy Sentier n°27 Sentier Longue Borne / Chemin d'Hollain</desc>
<link href="https://chemins.be/rongy/sentier/27"/><trkseg>
<trkpt lat="50.518438" lon="3.398654"><time>2026-05-02T18:32:23Z</time></trkpt>
<trkpt lat="50.519098" lon="3.398311"><time>2026-05-02T18:42:23Z</time></trkpt>
<trkpt lat="50.519380" lon="3.396685"><time>2026-05-02T18:52:23Z</time></trkpt>
<trkpt lat="50.519628" lon="3.396920"><time>2026-05-02T19:02:23Z</time></trkpt>
</trkseg></trk>
<trk>
<name>hbtrg27</name>
<cmt>v</cmt>
<desc>Rongy Sentier n°27 Sentier Longue Borne / Chemin d'Hollain</desc>
<link href="https://chemins.be/rongy/sentier/27"/><trkseg>
<trkpt lat="50.519628" lon="3.396920"><time>2026-05-02T19:02:23Z</time></trkpt>
<trkpt lat="50.520470" lon="3.395052"><time>2026-05-02T19:12:23Z</time></trkpt>
</trkseg>
</trk>
<trk>
<name>hbtrg28</name>
<cmt>v</cmt>
<desc>Rongy Sentier n°28 </desc>
<link href="https://chemins.be/rongy/sentier/28"/><trkseg>
<trkpt lat="50.517954" lon="3.394481"><time>2026-05-02T18:12:23Z</time></trkpt>
<trkpt lat="50.517370" lon="3.396318"><time>2026-05-02T18:22:23Z</time></trkpt>
</trkseg>
</trk>
<trk>
<name>hbtrg29</name>
<cmt>q</cmt>
<desc>Rongy Sentier n°29 </desc>
<link href="https://chemins.be/rongy/sentier/29"/><trkseg>
<trkpt lat="50.511608" lon="3.377577"><time>2026-05-02T18:12:23Z</time></trkpt>
<trkpt lat="50.512256" lon="3.379422"><time>2026-05-02T18:22:23Z</time></trkpt>
</trkseg></trk>
<trk>
<name>hbtrg29</name>
<cmt>v</cmt>
<desc>Rongy Sentier n°29 </desc>
<link href="https://chemins.be/rongy/sentier/29"/><trkseg>
<trkpt lat="50.512256" lon="3.379422"><time>2026-05-02T18:22:23Z</time></trkpt>
<trkpt lat="50.512508" lon="3.380474"><time>2026-05-02T18:32:23Z</time></trkpt>
<trkpt lat="50.513074" lon="3.382781"><time>2026-05-02T18:42:23Z</time></trkpt>
<trkpt lat="50.513480" lon="3.382776"><time>2026-05-02T18:52:23Z</time></trkpt>
<trkpt lat="50.514172" lon="3.386207"><time>2026-05-02T19:02:23Z</time></trkpt>
<trkpt lat="50.514369" lon="3.386795"><time>2026-05-02T19:12:23Z</time></trkpt>
<trkpt lat="50.514565" lon="3.387401"><time>2026-05-02T19:22:23Z</time></trkpt>
<trkpt lat="50.514879" lon="3.388370"><time>2026-05-02T19:32:23Z</time></trkpt>
<trkpt lat="50.515147" lon="3.388687"><time>2026-05-02T19:42:23Z</time></trkpt>
<trkpt lat="50.517203" lon="3.391117"><time>2026-05-02T19:52:23Z</time></trkpt>
<trkpt lat="50.518186" lon="3.392280"><time>2026-05-02T20:02:23Z</time></trkpt>
<trkpt lat="50.520487" lon="3.395031"><time>2026-05-02T20:12:23Z</time></trkpt>
<trkpt lat="50.522047" lon="3.396872"><time>2026-05-02T20:22:23Z</time></trkpt>
</trkseg>
</trk>
<trk>
<name>hbtrg30</name>
<cmt>q</cmt>
<desc>Rongy Sentier n°30 </desc>
<link href="https://chemins.be/rongy/sentier/30"/><trkseg>
<trkpt lat="50.521714" lon="3.398126"><time>2026-05-02T18:12:23Z</time></trkpt>
<trkpt lat="50.521861" lon="3.397302"><time>2026-05-02T18:22:23Z</time></trkpt>
<trkpt lat="50.522056" lon="3.396858"><time>2026-05-02T18:32:23Z</time></trkpt>
</trkseg>
</trk>
<trk>
<name>hbtrg31</name>
<cmt>d</cmt>
<desc>Rongy Sentier n°31 </desc>
<link href="https://chemins.be/rongy/sentier/31"/><trkseg>
<trkpt lat="50.508743" lon="3.392445"><time>2026-05-02T18:12:23Z</time></trkpt>
<trkpt lat="50.510045" lon="3.392651"><time>2026-05-02T18:22:23Z</time></trkpt>
<trkpt lat="50.510130" lon="3.392608"><time>2026-05-02T18:32:23Z</time></trkpt>
</trkseg></trk>
<trk>
<name>hbtrg31</name>
<cmt>s</cmt>
<desc>Rongy Sentier n°31 </desc>
<link href="https://chemins.be/rongy/sentier/31"/><trkseg>
<trkpt lat="50.510130" lon="3.392608"><time>2026-05-02T18:32:23Z</time></trkpt>
<trkpt lat="50.511309" lon="3.391774"><time>2026-05-02T18:42:23Z</time></trkpt>
</trkseg></trk>
<trk>
<name>hbtrg31</name>
<cmt>v</cmt>
<desc>Rongy Sentier n°31 </desc>
<link href="https://chemins.be/rongy/sentier/31"/><trkseg>
<trkpt lat="50.511309" lon="3.391774"><time>2026-05-02T18:42:23Z</time></trkpt>
<trkpt lat="50.512024" lon="3.391278"><time>2026-05-02T18:52:23Z</time></trkpt>
<trkpt lat="50.512208" lon="3.391411"><time>2026-05-02T19:02:23Z</time></trkpt>
</trkseg></trk>
<trk>
<name>hbtrg31</name>
<cmt>s</cmt>
<desc>Rongy Sentier n°31 </desc>
<link href="https://chemins.be/rongy/sentier/31"/><trkseg>
<trkpt lat="50.512208" lon="3.391411"><time>2026-05-02T19:02:23Z</time></trkpt>
<trkpt lat="50.512744" lon="3.391887"><time>2026-05-02T19:12:23Z</time></trkpt>
<trkpt lat="50.513634" lon="3.391055"><time>2026-05-02T19:22:23Z</time></trkpt>
<trkpt lat="50.514851" lon="3.390291"><time>2026-05-02T19:32:23Z</time></trkpt>
<trkpt lat="50.516275" lon="3.390025"><time>2026-05-02T19:42:23Z</time></trkpt>
</trkseg>
</trk>
<trk>
<name>hbtrg31bis</name>
<cmt>v</cmt>
<desc>Rongy Sentier n°31bis </desc>
<link href="https://chemins.be/rongy/sentier/31bis"/><trkseg>
<trkpt lat="50.511045" lon="3.390447"><time>2026-05-02T18:12:23Z</time></trkpt>
<trkpt lat="50.511211" lon="3.391391"><time>2026-05-02T18:22:23Z</time></trkpt>
</trkseg>
</trk>
<trk>
<name>hbtrg31ter</name>
<cmt>q</cmt>
<desc>Rongy Sentier n°31ter </desc>
<link href="https://chemins.be/rongy/sentier/31ter"/><trkseg>
<trkpt lat="50.510131" lon="3.392642"><time>2026-05-02T18:12:23Z</time></trkpt>
<trkpt lat="50.511228" lon="3.395758"><time>2026-05-02T18:22:23Z</time></trkpt>
</trkseg>
</trk>
<trk>
<name>hbtrg32</name>
<cmt>v</cmt>
<desc>Rongy Sentier n°32 </desc>
<link href="https://chemins.be/rongy/sentier/32"/><trkseg>
<trkpt lat="50.514657" lon="3.391529"><time>2026-05-02T18:12:23Z</time></trkpt>
<trkpt lat="50.514796" lon="3.390297"><time>2026-05-02T18:22:23Z</time></trkpt>
<trkpt lat="50.515168" lon="3.388696"><time>2026-05-02T18:32:23Z</time></trkpt>
</trkseg>
</trk>
<trk>
<name>hbtrg33</name>
<cmt>q</cmt>
<desc>Rongy Sentier n°33 </desc>
<link href="https://chemins.be/rongy/sentier/33"/><trkseg>
<trkpt lat="50.508651" lon="3.397928"><time>2026-05-02T18:12:23Z</time></trkpt>
<trkpt lat="50.510356" lon="3.401166"><time>2026-05-02T18:22:23Z</time></trkpt>
<trkpt lat="50.512147" lon="3.408332"><time>2026-05-02T18:32:23Z</time></trkpt>
<trkpt lat="50.512441" lon="3.408354"><time>2026-05-02T18:42:23Z</time></trkpt>
<trkpt lat="50.512575" lon="3.408686"><time>2026-05-02T18:52:23Z</time></trkpt>
</trkseg>
</trk>
<trk>
<name>hbtrg34</name>
<cmt>v</cmt>
<desc>Rongy Sentier n°34 Rue des Panneries</desc>
<link href="https://chemins.be/rongy/sentier/34"/><trkseg>
<trkpt lat="50.508438" lon="3.385257"><time>2026-05-02T18:12:23Z</time></trkpt>
<trkpt lat="50.508648" lon="3.385347"><time>2026-05-02T18:22:23Z</time></trkpt>
<trkpt lat="50.509079" lon="3.386006"><time>2026-05-02T18:32:23Z</time></trkpt>
</trkseg></trk>
<trk>
<name>hbtrg34</name>
<cmt>b</cmt>
<desc>Rongy Sentier n°34 Rue des Panneries</desc>
<link href="https://chemins.be/rongy/sentier/34"/><trkseg>
<trkpt lat="50.509079" lon="3.386006"><time>2026-05-02T18:32:23Z</time></trkpt>
<trkpt lat="50.509267" lon="3.386308"><time>2026-05-02T18:42:23Z</time></trkpt>
<trkpt lat="50.509928" lon="3.386209"><time>2026-05-02T18:52:23Z</time></trkpt>
</trkseg></trk>
<trk>
<name>hbtrg34</name>
<cmt>r</cmt>
<desc>Rongy Sentier n°34 Rue des Panneries</desc>
<link href="https://chemins.be/rongy/sentier/34"/><trkseg>
<trkpt lat="50.509928" lon="3.386209"><time>2026-05-02T18:52:23Z</time></trkpt>
<trkpt lat="50.509993" lon="3.386541"><time>2026-05-02T19:02:23Z</time></trkpt>
</trkseg></trk>
<trk>
<name>hbtrg34</name>
<cmt>q</cmt>
<desc>Rongy Sentier n°34 Rue des Panneries</desc>
<link href="https://chemins.be/rongy/sentier/34"/><trkseg>
<trkpt lat="50.509993" lon="3.386541"><time>2026-05-02T19:02:23Z</time></trkpt>
<trkpt lat="50.510290" lon="3.386276"><time>2026-05-02T19:12:23Z</time></trkpt>
<trkpt lat="50.510463" lon="3.386815"><time>2026-05-02T19:22:23Z</time></trkpt>
<trkpt lat="50.511006" lon="3.387011"><time>2026-05-02T19:32:23Z</time></trkpt>
<trkpt lat="50.511400" lon="3.386624"><time>2026-05-02T19:42:23Z</time></trkpt>
<trkpt lat="50.511664" lon="3.386572"><time>2026-05-02T19:52:23Z</time></trkpt>
<trkpt lat="50.512982" lon="3.386284"><time>2026-05-02T20:02:23Z</time></trkpt>
<trkpt lat="50.514375" lon="3.386815"><time>2026-05-02T20:12:23Z</time></trkpt>
</trkseg>
</trk>
<trk>
<name>hbtrg35</name>
<cmt>v</cmt>
<desc>Rongy Sentier n°35 Sentier n°35</desc>
<link href="https://chemins.be/rongy/sentier/35"/><trkseg>
<trkpt lat="50.507868" lon="3.389383"><time>2026-05-02T18:12:23Z</time></trkpt>
<trkpt lat="50.510420" lon="3.387645"><time>2026-05-02T18:22:23Z</time></trkpt>
</trkseg></trk>
<trk>
<name>hbtrg35</name>
<cmt>q</cmt>
<desc>Rongy Sentier n°35 Sentier n°35</desc>
<link href="https://chemins.be/rongy/sentier/35"/><trkseg>
<trkpt lat="50.510420" lon="3.387645"><time>2026-05-02T18:22:23Z</time></trkpt>
<trkpt lat="50.511017" lon="3.386980"><time>2026-05-02T18:32:23Z</time></trkpt>
</trkseg>
</trk>
<trk>
<name>hbtrg36</name>
<cmt>v</cmt>
<desc>Rongy Sentier n°36 Rue des Berceaux</desc>
<link href="https://chemins.be/rongy/sentier/36"/><trkseg>
<trkpt lat="50.507314" lon="3.391603"><time>2026-05-02T18:12:23Z</time></trkpt>
<trkpt lat="50.508363" lon="3.390952"><time>2026-05-02T18:22:23Z</time></trkpt>
</trkseg></trk>
<trk>
<name>hbtrg36</name>
<cmt>r</cmt>
<desc>Rongy Sentier n°36 Rue des Berceaux</desc>
<link href="https://chemins.be/rongy/sentier/36"/><trkseg>
<trkpt lat="50.508363" lon="3.390952"><time>2026-05-02T18:22:23Z</time></trkpt>
<trkpt lat="50.508106" lon="3.390179"><time>2026-05-02T18:32:23Z</time></trkpt>
</trkseg></trk>
<trk>
<name>hbtrg36</name>
<cmt>q</cmt>
<desc>Rongy Sentier n°36 Rue des Berceaux</desc>
<link href="https://chemins.be/rongy/sentier/36"/><trkseg>
<trkpt lat="50.508106" lon="3.390179"><time>2026-05-02T18:32:23Z</time></trkpt>
<trkpt lat="50.508930" lon="3.389819"><time>2026-05-02T18:42:23Z</time></trkpt>
<trkpt lat="50.509596" lon="3.388179"><time>2026-05-02T18:52:23Z</time></trkpt>
</trkseg>
</trk>
<trk>
<name>hbtrg36bis</name>
<cmt>q</cmt>
<desc>Rongy Sentier n°36bis </desc>
<link href="https://chemins.be/rongy/sentier/36bis"/><trkseg>
<trkpt lat="50.509146" lon="3.390706"><time>2026-05-02T18:12:23Z</time></trkpt>
<trkpt lat="50.508931" lon="3.389830"><time>2026-05-02T18:22:23Z</time></trkpt>
<trkpt lat="50.508760" lon="3.388793"><time>2026-05-02T18:32:23Z</time></trkpt>
</trkseg>
</trk>
<trk>
<name>hbtrg37</name>
<cmt>r</cmt>
<desc>Rongy Sentier n°37 Sentier Aimoncamps</desc>
<link href="https://chemins.be/rongy/sentier/37"/><trkseg>
<trkpt lat="50.506414" lon="3.386402"><time>2026-05-02T18:12:23Z</time></trkpt>
<trkpt lat="50.505453" lon="3.386659"><time>2026-05-02T18:22:23Z</time></trkpt>
</trkseg>
</trk>
<trk>
<name>hbtrg38</name>
<cmt>q</cmt>
<desc>Rongy Sentier n°38 </desc>
<link href="https://chemins.be/rongy/sentier/38"/><trkseg>
<trkpt lat="50.506360" lon="3.386443"><time>2026-05-02T18:12:23Z</time></trkpt>
<trkpt lat="50.505860" lon="3.387297"><time>2026-05-02T18:22:23Z</time></trkpt>
<trkpt lat="50.505648" lon="3.387678"><time>2026-05-02T18:32:23Z</time></trkpt>
</trkseg></trk>
<trk>
<name>hbtrg38</name>
<cmt>v</cmt>
<desc>Rongy Sentier n°38 </desc>
<link href="https://chemins.be/rongy/sentier/38"/><trkseg>
<trkpt lat="50.505648" lon="3.387678"><time>2026-05-02T18:32:23Z</time></trkpt>
<trkpt lat="50.504965" lon="3.389118"><time>2026-05-02T18:42:23Z</time></trkpt>
<trkpt lat="50.504965" lon="3.389848"><time>2026-05-02T18:52:23Z</time></trkpt>
<trkpt lat="50.504365" lon="3.389972"><time>2026-05-02T19:02:23Z</time></trkpt>
<trkpt lat="50.502845" lon="3.391417"><time>2026-05-02T19:12:23Z</time></trkpt>
<trkpt lat="50.502654" lon="3.391774"><time>2026-05-02T19:22:23Z</time></trkpt>
</trkseg>
</trk>
<trk>
<name>hbtrg39</name>
<cmt>v</cmt>
<desc>Rongy Sentier n°39 Ruelle Aimoncamps</desc>
<link href="https://chemins.be/rongy/sentier/39"/><trkseg>
<trkpt lat="50.506325" lon="3.389494"><time>2026-05-02T18:12:23Z</time></trkpt>
<trkpt lat="50.506301" lon="3.387605"><time>2026-05-02T18:22:23Z</time></trkpt>
<trkpt lat="50.506333" lon="3.387125"><time>2026-05-02T18:32:23Z</time></trkpt>
</trkseg></trk>
<trk>
<name>hbtrg39</name>
<cmt>r</cmt>
<desc>Rongy Sentier n°39 Ruelle Aimoncamps</desc>
<link href="https://chemins.be/rongy/sentier/39"/><trkseg>
<trkpt lat="50.506333" lon="3.387125"><time>2026-05-02T18:32:23Z</time></trkpt>
<trkpt lat="50.506398" lon="3.386363"><time>2026-05-02T18:42:23Z</time></trkpt>
</trkseg>
</trk>
<trk>
<name>hbtrg4</name>
<cmt>q</cmt>
<desc>Rongy Chemin n°4 </desc>
<link href="https://chemins.be/rongy/chemin/4"/><trkseg>
<trkpt lat="50.505247" lon="3.396447"><time>2026-05-02T18:12:23Z</time></trkpt>
<trkpt lat="50.505872" lon="3.396872"><time>2026-05-02T18:22:23Z</time></trkpt>
</trkseg>
</trk>
<trk>
<name>hbtrg40</name>
<cmt>v</cmt>
<desc>Rongy Sentier n°40 </desc>
<link href="https://chemins.be/rongy/sentier/40"/><trkseg>
<trkpt lat="50.507598" lon="3.387959"><time>2026-05-02T18:12:23Z</time></trkpt>
<trkpt lat="50.507203" lon="3.388024"><time>2026-05-02T18:22:23Z</time></trkpt>
<trkpt lat="50.506273" lon="3.387592"><time>2026-05-02T18:32:23Z</time></trkpt>
<trkpt lat="50.505885" lon="3.387332"><time>2026-05-02T18:42:23Z</time></trkpt>
</trkseg>
</trk>
<trk>
<name>hbtrg41</name>
<cmt>q</cmt>
<desc>Rongy Sentier n°41 </desc>
<link href="https://chemins.be/rongy/sentier/41"/><trkseg>
<trkpt lat="50.503860" lon="3.393589"><time>2026-05-02T18:12:23Z</time></trkpt>
<trkpt lat="50.504006" lon="3.392864"><time>2026-05-02T18:22:23Z</time></trkpt>
<trkpt lat="50.504497" lon="3.391834"><time>2026-05-02T18:32:23Z</time></trkpt>
<trkpt lat="50.504916" lon="3.391463"><time>2026-05-02T18:42:23Z</time></trkpt>
<trkpt lat="50.504958" lon="3.389918"><time>2026-05-02T18:52:23Z</time></trkpt>
</trkseg>
</trk>
<trk>
<name>hbtrg42</name>
<cmt>v</cmt>
<desc>Rongy Sentier n°42 </desc>
<link href="https://chemins.be/rongy/sentier/42"/><trkseg>
<trkpt lat="50.502900" lon="3.386911"><time>2026-05-02T18:12:23Z</time></trkpt>
<trkpt lat="50.502724" lon="3.388479"><time>2026-05-02T18:22:23Z</time></trkpt>
</trkseg></trk>
<trk>
<name>hbtrg42</name>
<cmt>q</cmt>
<desc>Rongy Sentier n°42 </desc>
<link href="https://chemins.be/rongy/sentier/42"/><trkseg>
<trkpt lat="50.502724" lon="3.388479"><time>2026-05-02T18:22:23Z</time></trkpt>
<trkpt lat="50.503051" lon="3.388794"><time>2026-05-02T18:32:23Z</time></trkpt>
<trkpt lat="50.503737" lon="3.390062"><time>2026-05-02T18:42:23Z</time></trkpt>
<trkpt lat="50.503674" lon="3.390633"><time>2026-05-02T18:52:23Z</time></trkpt>
<trkpt lat="50.503558" lon="3.391693"><time>2026-05-02T19:02:23Z</time></trkpt>
<trkpt lat="50.503970" lon="3.392928"><time>2026-05-02T19:12:23Z</time></trkpt>
</trkseg>
</trk>
<trk>
<name>hbtrg43</name>
<cmt>v</cmt>
<desc>Rongy Sentier n°43 </desc>
<link href="https://chemins.be/rongy/sentier/43"/><trkseg>
<trkpt lat="50.501244" lon="3.390711"><time>2026-05-02T18:12:23Z</time></trkpt>
<trkpt lat="50.502151" lon="3.390077"><time>2026-05-02T18:22:23Z</time></trkpt>
<trkpt lat="50.502148" lon="3.389853"><time>2026-05-02T18:32:23Z</time></trkpt>
<trkpt lat="50.502730" lon="3.388479"><time>2026-05-02T18:42:23Z</time></trkpt>
<trkpt lat="50.502754" lon="3.388179"><time>2026-05-02T18:52:23Z</time></trkpt>
</trkseg></trk>
<trk>
<name>hbtrg43</name>
<cmt>q</cmt>
<desc>Rongy Sentier n°43 </desc>
<link href="https://chemins.be/rongy/sentier/43"/><trkseg>
<trkpt lat="50.502754" lon="3.388179"><time>2026-05-02T18:52:23Z</time></trkpt>
<trkpt lat="50.502305" lon="3.386753"><time>2026-05-02T19:02:23Z</time></trkpt>
<trkpt lat="50.502193" lon="3.386710"><time>2026-05-02T19:12:23Z</time></trkpt>
<trkpt lat="50.501408" lon="3.384879"><time>2026-05-02T19:22:23Z</time></trkpt>
<trkpt lat="50.501159" lon="3.383921"><time>2026-05-02T19:32:23Z</time></trkpt>
<trkpt lat="50.501626" lon="3.382366"><time>2026-05-02T19:42:23Z</time></trkpt>
</trkseg>
</trk>
<trk>
<name>hbtrg44</name>
<cmt>q</cmt>
<desc>Rongy Sentier n°44 </desc>
<link href="https://chemins.be/rongy/sentier/44"/><trkseg>
<trkpt lat="50.506068" lon="3.385187"><time>2026-05-02T18:12:23Z</time></trkpt>
<trkpt lat="50.506772" lon="3.382736"><time>2026-05-02T18:22:23Z</time></trkpt>
<trkpt lat="50.507827" lon="3.377138"><time>2026-05-02T18:32:23Z</time></trkpt>
<trkpt lat="50.508767" lon="3.375317"><time>2026-05-02T18:42:23Z</time></trkpt>
</trkseg>
</trk>
<trk>
<name>hbtrg45</name>
<cmt>q</cmt>
<desc>Rongy Sentier n°45 </desc>
<link href="https://chemins.be/rongy/sentier/45"/><trkseg>
<trkpt lat="50.510630" lon="3.407663"><time>2026-05-02T18:12:23Z</time></trkpt>
<trkpt lat="50.511720" lon="3.406648"><time>2026-05-02T18:22:23Z</time></trkpt>
<trkpt lat="50.512460" lon="3.405910"><time>2026-05-02T18:32:23Z</time></trkpt>
<trkpt lat="50.513606" lon="3.404301"><time>2026-05-02T18:42:23Z</time></trkpt>
</trkseg>
</trk>
<trk>
<name>hbtrg46</name>
<cmt>q</cmt>
<desc>Rongy Sentier n°46 </desc>
<link href="https://chemins.be/rongy/sentier/46"/><trkseg>
<trkpt lat="50.513232" lon="3.406991"><time>2026-05-02T18:12:23Z</time></trkpt>
<trkpt lat="50.512732" lon="3.405986"><time>2026-05-02T18:22:23Z</time></trkpt>
<trkpt lat="50.512454" lon="3.405865"><time>2026-05-02T18:32:23Z</time></trkpt>
<trkpt lat="50.511719" lon="3.404272"><time>2026-05-02T18:42:23Z</time></trkpt>
<trkpt lat="50.510991" lon="3.402856"><time>2026-05-02T18:52:23Z</time></trkpt>
<trkpt lat="50.510750" lon="3.402763"><time>2026-05-02T19:02:23Z</time></trkpt>
</trkseg>
</trk>
<trk>
<name>hbtrg47</name>
<cmt>b</cmt>
<desc>Rongy Sentier n°47 </desc>
<link href="https://chemins.be/rongy/sentier/47"/><trkseg>
<trkpt lat="50.500595" lon="3.391731"><time>2026-05-02T18:12:23Z</time></trkpt>
<trkpt lat="50.501053" lon="3.392985"><time>2026-05-02T18:22:23Z</time></trkpt>
<trkpt lat="50.500837" lon="3.395084"><time>2026-05-02T18:32:23Z</time></trkpt>
<trkpt lat="50.500898" lon="3.395799"><time>2026-05-02T18:42:23Z</time></trkpt>
</trkseg>
</trk>
<trk>
<name>hbtrg48</name>
<cmt>q</cmt>
<desc>Rongy Sentier n°48 </desc>
<link href="https://chemins.be/rongy/sentier/48"/><trkseg>
<trkpt lat="50.504443" lon="3.395827"><time>2026-05-02T18:12:23Z</time></trkpt>
<trkpt lat="50.503979" lon="3.396659"><time>2026-05-02T18:22:23Z</time></trkpt>
<trkpt lat="50.504279" lon="3.397226"><time>2026-05-02T18:32:23Z</time></trkpt>
<trkpt lat="50.504396" lon="3.398297"><time>2026-05-02T18:42:23Z</time></trkpt>
<trkpt lat="50.503892" lon="3.400281"><time>2026-05-02T18:52:23Z</time></trkpt>
</trkseg>
</trk>
<trk>
<name>hbtrg49</name>
<cmt>q</cmt>
<desc>Rongy Sentier n°49 </desc>
<link href="https://chemins.be/rongy/sentier/49"/><trkseg>
<trkpt lat="50.504052" lon="3.396824"><time>2026-05-02T18:12:23Z</time></trkpt>
<trkpt lat="50.502970" lon="3.397873"><time>2026-05-02T18:22:23Z</time></trkpt>
</trkseg>
</trk>
<trk>
<name>hbtrg5</name>
<cmt>v</cmt>
<desc>Rongy Chemin n°5 France - Belgique / België / Belgien / Chemin Frontière / Rue des Fèves / Rue d'Ombrie / Rue Dombrie / Rue d'Ombrie</desc>
<link href="https://chemins.be/rongy/chemin/5"/><trkseg>
<trkpt lat="50.492131" lon="3.377032"><time>2026-05-02T18:12:23Z</time></trkpt>
<trkpt lat="50.492167" lon="3.378074"><time>2026-05-02T18:22:23Z</time></trkpt>
<trkpt lat="50.492047" lon="3.378739"><time>2026-05-02T18:32:23Z</time></trkpt>
<trkpt lat="50.492031" lon="3.378965"><time>2026-05-02T18:42:23Z</time></trkpt>
<trkpt lat="50.492980" lon="3.380665"><time>2026-05-02T18:52:23Z</time></trkpt>
<trkpt lat="50.493449" lon="3.382857"><time>2026-05-02T19:02:23Z</time></trkpt>
<trkpt lat="50.493535" lon="3.383557"><time>2026-05-02T19:12:23Z</time></trkpt>
<trkpt lat="50.493637" lon="3.384978"><time>2026-05-02T19:22:23Z</time></trkpt>
<trkpt lat="50.493712" lon="3.385273"><time>2026-05-02T19:32:23Z</time></trkpt>
<trkpt lat="50.494207" lon="3.386460"><time>2026-05-02T19:42:23Z</time></trkpt>
<trkpt lat="50.494532" lon="3.386637"><time>2026-05-02T19:52:23Z</time></trkpt>
<trkpt lat="50.494795" lon="3.386885"><time>2026-05-02T20:02:23Z</time></trkpt>
<trkpt lat="50.495059" lon="3.387274"><time>2026-05-02T20:12:23Z</time></trkpt>
<trkpt lat="50.495500" lon="3.388832"><time>2026-05-02T20:22:23Z</time></trkpt>
</trkseg></trk>
<trk>
<name>hbtrg5</name>
<cmt>r</cmt>
<desc>Rongy Chemin n°5 France - Belgique / België / Belgien / Chemin Frontière / Rue des Fèves / Rue d'Ombrie / Rue Dombrie / Rue d'Ombrie</desc>
<link href="https://chemins.be/rongy/chemin/5"/><trkseg>
<trkpt lat="50.495500" lon="3.388832"><time>2026-05-02T20:22:23Z</time></trkpt>
<trkpt lat="50.497670" lon="3.390462"><time>2026-05-02T20:32:23Z</time></trkpt>
<trkpt lat="50.498512" lon="3.392099"><time>2026-05-02T20:42:23Z</time></trkpt>
<trkpt lat="50.497643" lon="3.392458"><time>2026-05-02T20:52:23Z</time></trkpt>
<trkpt lat="50.497684" lon="3.393466"><time>2026-05-02T21:02:23Z</time></trkpt>
<trkpt lat="50.496127" lon="3.396090"><time>2026-05-02T21:12:23Z</time></trkpt>
</trkseg></trk>
<trk>
<name>hbtrg5</name>
<cmt>v</cmt>
<desc>Rongy Chemin n°5 France - Belgique / België / Belgien / Chemin Frontière / Rue des Fèves / Rue d'Ombrie / Rue Dombrie / Rue d'Ombrie</desc>
<link href="https://chemins.be/rongy/chemin/5"/><trkseg>
<trkpt lat="50.496127" lon="3.396090"><time>2026-05-02T21:12:23Z</time></trkpt>
<trkpt lat="50.496570" lon="3.396712"><time>2026-05-02T21:22:23Z</time></trkpt>
<trkpt lat="50.496837" lon="3.397179"><time>2026-05-02T21:32:23Z</time></trkpt>
</trkseg>
</trk>
<trk>
<name>hbtrg50</name>
<cmt>q</cmt>
<desc>Rongy Sentier n°50 </desc>
<link href="https://chemins.be/rongy/sentier/50"/><trkseg>
<trkpt lat="50.510302" lon="3.383661"><time>2026-05-02T18:12:23Z</time></trkpt>
<trkpt lat="50.511923" lon="3.380387"><time>2026-05-02T18:22:23Z</time></trkpt>
<trkpt lat="50.512478" lon="3.380359"><time>2026-05-02T18:32:23Z</time></trkpt>
</trkseg>
</trk>
<trk>
<name>hbtrg51</name>
<cmt>v</cmt>
<desc>Rongy Sentier n°51 </desc>
<link href="https://chemins.be/rongy/sentier/51"/><trkseg>
<trkpt lat="50.508812" lon="3.384215"><time>2026-05-02T18:12:23Z</time></trkpt>
<trkpt lat="50.509152" lon="3.384005"><time>2026-05-02T18:22:23Z</time></trkpt>
<trkpt lat="50.510213" lon="3.383776"><time>2026-05-02T18:32:23Z</time></trkpt>
<trkpt lat="50.513005" lon="3.382629"><time>2026-05-02T18:42:23Z</time></trkpt>
</trkseg>
</trk>
<trk>
<name>hbtrg52</name>
<cmt>q</cmt>
<desc>Rongy Sentier n°52 </desc>
<link href="https://chemins.be/rongy/sentier/52"/><trkseg>
<trkpt lat="50.511172" lon="3.409326"><time>2026-05-02T18:12:23Z</time></trkpt>
<trkpt lat="50.512150" lon="3.408329"><time>2026-05-02T18:22:23Z</time></trkpt>
</trkseg>
</trk>
<trk>
<name>hbtrg53</name>
<cmt>v</cmt>
<desc>Rongy Sentier n°53 </desc>
<link href="https://chemins.be/rongy/sentier/53"/><trkseg>
<trkpt lat="50.495633" lon="3.384579"><time>2026-05-02T18:12:23Z</time></trkpt>
<trkpt lat="50.495087" lon="3.383620"><time>2026-05-02T18:22:23Z</time></trkpt>
<trkpt lat="50.494628" lon="3.382813"><time>2026-05-02T18:32:23Z</time></trkpt>
<trkpt lat="50.494127" lon="3.381879"><time>2026-05-02T18:42:23Z</time></trkpt>
</trkseg></trk>
<trk>
<name>hbtrg53</name>
<cmt>d</cmt>
<desc>Rongy Sentier n°53 </desc>
<link href="https://chemins.be/rongy/sentier/53"/><trkseg>
<trkpt lat="50.494127" lon="3.381879"><time>2026-05-02T18:42:23Z</time></trkpt>
<trkpt lat="50.493717" lon="3.381115"><time>2026-05-02T18:52:23Z</time></trkpt>
<trkpt lat="50.493039" lon="3.380817"><time>2026-05-02T19:02:23Z</time></trkpt>
</trkseg>
</trk>
<trk>
<name>hbtrg54</name>
<cmt>d</cmt>
<desc>Rongy Sentier n°54 </desc>
<link href="https://chemins.be/rongy/sentier/54"/><trkseg>
<trkpt lat="50.497804" lon="3.390682"><time>2026-05-02T18:12:23Z</time></trkpt>
<trkpt lat="50.497992" lon="3.390515"><time>2026-05-02T18:22:23Z</time></trkpt>
<trkpt lat="50.497774" lon="3.388246"><time>2026-05-02T18:32:23Z</time></trkpt>
<trkpt lat="50.498008" lon="3.387645"><time>2026-05-02T18:42:23Z</time></trkpt>
</trkseg>
</trk>
<trk>
<name>hbtrg55</name>
<cmt>d</cmt>
<desc>Rongy Sentier n°55 </desc>
<link href="https://chemins.be/rongy/sentier/55"/><trkseg>
<trkpt lat="50.515196" lon="3.403785"><time>2026-05-02T18:12:23Z</time></trkpt>
<trkpt lat="50.514773" lon="3.403202"><time>2026-05-02T18:22:23Z</time></trkpt>
<trkpt lat="50.514109" lon="3.402906"><time>2026-05-02T18:32:23Z</time></trkpt>
</trkseg>
</trk>
<trk>
<name>hbtrg6</name>
<cmt>r</cmt>
<desc>Rongy Chemin n°6 </desc>
<link href="https://chemins.be/rongy/chemin/6"/><trkseg>
<trkpt lat="50.514706" lon="3.391694"><time>2026-05-02T18:12:23Z</time></trkpt>
<trkpt lat="50.514273" lon="3.395614"><time>2026-05-02T18:22:23Z</time></trkpt>
</trkseg></trk>
<trk>
<name>hbtrg6</name>
<cmt>v</cmt>
<desc>Rongy Chemin n°6 </desc>
<link href="https://chemins.be/rongy/chemin/6"/><trkseg>
<trkpt lat="50.514273" lon="3.395614"><time>2026-05-02T18:22:23Z</time></trkpt>
<trkpt lat="50.514277" lon="3.396628"><time>2026-05-02T18:32:23Z</time></trkpt>
<trkpt lat="50.514471" lon="3.398036"><time>2026-05-02T18:42:23Z</time></trkpt>
<trkpt lat="50.514477" lon="3.398766"><time>2026-05-02T18:52:23Z</time></trkpt>
<trkpt lat="50.514390" lon="3.400981"><time>2026-05-02T19:02:23Z</time></trkpt>
<trkpt lat="50.514047" lon="3.402987"><time>2026-05-02T19:12:23Z</time></trkpt>
<trkpt lat="50.513648" lon="3.404318"><time>2026-05-02T19:22:23Z</time></trkpt>
<trkpt lat="50.513692" lon="3.405833"><time>2026-05-02T19:32:23Z</time></trkpt>
</trkseg>
</trk>
<trk>
<name>hbtrg8</name>
<cmt>v</cmt>
<desc>Rongy Chemin n°8 </desc>
<link href="https://chemins.be/rongy/chemin/8"/><trkseg>
<trkpt lat="50.519398" lon="3.407008"><time>2026-05-02T18:12:23Z</time></trkpt>
<trkpt lat="50.520151" lon="3.406665"><time>2026-05-02T18:22:23Z</time></trkpt>
<trkpt lat="50.520825" lon="3.406751"><time>2026-05-02T18:32:23Z</time></trkpt>
</trkseg>
</trk>
<trk>
<name>hbtrg9</name>
<cmt>r</cmt>
<desc>Rongy Chemin n°9 Rue des Bigots</desc>
<link href="https://chemins.be/rongy/chemin/9"/><trkseg>
<trkpt lat="50.500495" lon="3.386982"><time>2026-05-02T18:12:23Z</time></trkpt>
<trkpt lat="50.500745" lon="3.389695"><time>2026-05-02T18:22:23Z</time></trkpt>
<trkpt lat="50.501168" lon="3.390225"><time>2026-05-02T18:32:23Z</time></trkpt>
<trkpt lat="50.501291" lon="3.391340"><time>2026-05-02T18:42:23Z</time></trkpt>
<trkpt lat="50.501237" lon="3.391655"><time>2026-05-02T18:52:23Z</time></trkpt>
</trkseg>
</trk>
<trk>
<name>hbtrgi1</name>
<cmt>v</cmt>
<desc>Rongy Chemin n°i1 </desc>
<link href="https://chemins.be/rongy/chemin/i1"/><trkseg>
<trkpt lat="50.505863" lon="3.396819"><time>2026-05-02T18:12:23Z</time></trkpt>
<trkpt lat="50.506272" lon="3.396948"><time>2026-05-02T18:22:23Z</time></trkpt>
<trkpt lat="50.506242" lon="3.398021"><time>2026-05-02T18:32:23Z</time></trkpt>
<trkpt lat="50.506466" lon="3.398975"><time>2026-05-02T18:42:23Z</time></trkpt>
</trkseg>
</trk>
<trk>
<name>hbtrgi2</name>
<cmt>v</cmt>
<desc>Rongy Chemin n°i2 </desc>
<link href="https://chemins.be/rongy/chemin/i2"/><trkseg>
<trkpt lat="50.511863" lon="3.390222"><time>2026-05-02T18:12:23Z</time></trkpt>
<trkpt lat="50.512209" lon="3.391410"><time>2026-05-02T18:22:23Z</time></trkpt>
</trkseg>
</trk>
<trk>
<name>hbtrgi3</name>
<cmt>v</cmt>
<desc>Rongy Chemin n°i3 </desc>
<link href="https://chemins.be/rongy/chemin/i3"/><trkseg>
<trkpt lat="50.502275" lon="3.396169"><time>2026-05-02T18:12:23Z</time></trkpt>
<trkpt lat="50.502291" lon="3.397285"><time>2026-05-02T18:22:23Z</time></trkpt>
<trkpt lat="50.503891" lon="3.400280"><time>2026-05-02T18:32:23Z</time></trkpt>
</trkseg>
</trk>
<trk>
<name>hbtrgi4</name>
<cmt>v</cmt>
<desc>Rongy Chemin n°i4 </desc>
<link href="https://chemins.be/rongy/chemin/i4"/><trkseg>
<trkpt lat="50.497096" lon="3.377729"><time>2026-05-02T18:12:23Z</time></trkpt>
<trkpt lat="50.494127" lon="3.381896"><time>2026-05-02T18:22:23Z</time></trkpt>
<trkpt lat="50.493433" lon="3.382862"><time>2026-05-02T18:32:23Z</time></trkpt>
</trkseg>
</trk>
<trk>
<name>hbtrgi5</name>
<cmt>r</cmt>
<desc>Rongy Chemin n°i5 </desc>
<link href="https://chemins.be/rongy/chemin/i5"/><trkseg>
<trkpt lat="50.506299" lon="3.387220"><time>2026-05-02T18:12:23Z</time></trkpt>
<trkpt lat="50.505562" lon="3.387367"><time>2026-05-02T18:22:23Z</time></trkpt>
</trkseg>
</trk>
<trk>
<name>hbtrgi6</name>
<cmt>v</cmt>
<desc>Rongy Sentier n°i6 Voyette</desc>
<link href="https://chemins.be/rongy/sentier/i6"/><trkseg>
<trkpt lat="50.505082" lon="3.386663"><time>2026-05-02T18:12:23Z</time></trkpt>
<trkpt lat="50.504912" lon="3.387347"><time>2026-05-02T18:22:23Z</time></trkpt>
<trkpt lat="50.504989" lon="3.389088"><time>2026-05-02T18:32:23Z</time></trkpt>
</trkseg>
</trk>
<trk>
<name>hbtrgi7</name>
<cmt>v</cmt>
<desc>Rongy Chemin n°i7 </desc>
<link href="https://chemins.be/rongy/chemin/i7"/><trkseg>
<trkpt lat="50.500467" lon="3.386939"><time>2026-05-02T18:12:23Z</time></trkpt>
<trkpt lat="50.499763" lon="3.386384"><time>2026-05-02T18:22:23Z</time></trkpt>
<trkpt lat="50.499367" lon="3.385575"><time>2026-05-02T18:32:23Z</time></trkpt>
</trkseg>
</trk>
</gpx>